�v������,,���ԉ��x,�����t���O,���Ԏ��x,�����t���O,�q�������x,�����t���O,���ʎ����x,�����t���O,�{�C���[���x,�����t���O,30��,����,�����t���O
2003/6/1,0:00:00,23,0,61.7,0,23.3,0,23,0,26.6,0,2003/6/1 0:00,11.3,0
2003/6/1,0:10:00,22.9,0,61.7,0,23.3,0,22.9,0,26.5,0,2003/6/1 0:30,11.4,0
2003/6/1,0:20:00,22.9,0,61.5,0,23.2,0,22.9,0,26.4,0,2003/6/1 1:00,11.6,0
2003/6/1,0:30:00,22.8,0,61.5,0,23.2,0,22.8,0,26.3,0,2003/6/1 1:30,11.8,0
2003/6/1,0:40:00,22.7,0,61.3,0,23.2,0,22.8,0,26.2,0,2003/6/1 2:00,12,0
2003/6/1,0:50:00,22.7,0,61.3,0,23.1,0,22.7,0,26.1,0,2003/6/1 2:30,12.2,0
2003/6/1,1:00:00,22.6,0,61.2,0,23.1,0,22.7,0,26,0,2003/6/1 3:00,12.4,0
2003/6/1,1:10:00,22.6,0,61.3,0,23.1,0,22.6,0,25.9,0,2003/6/1 3:30,12.6,0
2003/6/1,1:20:00,22.5,0,61.3,0,23.1,0,22.6,0,25.8,0,2003/6/1 4:00,12.8,0
2003/6/1,1:30:00,22.5,0,61.1,0,23.1,0,22.6,0,25.7,0,2003/6/1 4:30,13,0
2003/6/1,1:40:00,22.5,0,61.2,0,23,0,22.5,0,25.7,0,2003/6/1 5:00,13.1,0
2003/6/1,1:50:00,22.4,0,61.2,0,23,0,22.5,0,25.6,0,2003/6/1 5:30,13.3,0
2003/6/1,2:00:00,22.4,0,61.3,0,23,0,22.5,0,25.6,0,2003/6/1 6:00,13.5,0
2003/6/1,2:10:00,22.4,0,61.3,0,23,0,22.4,0,25.5,0,2003/6/1 6:30,13.6,0
2003/6/1,2:20:00,22.4,0,61.4,0,23,0,22.4,0,25.4,0,2003/6/1 7:00,15.9,0
2003/6/1,2:30:00,22.3,0,61.7,0,23,0,22.4,0,25.4,0,2003/6/1 7:30,11.4,0
2003/6/1,2:40:00,22.3,0,62.2,0,23,0,22.4,0,25.3,0,2003/6/1 8:00,11.1,0
2003/6/1,2:50:00,22.3,0,62.5,0,23,0,22.4,0,25.2,0,2003/6/1 8:30,11.3,0
2003/6/1,3:00:00,22.3,0,62.6,0,23,0,22.3,0,25.2,0,2003/6/1 9:00,11.5,0
2003/6/1,3:10:00,22.3,0,62.7,0,23,0,22.3,0,25.1,0,2003/6/1 9:30,11.2,0
2003/6/1,3:20:00,22.2,0,62.9,0,22.9,0,22.3,0,25,0,2003/6/1 10:00,10.4,0
2003/6/1,3:30:00,22.2,0,63.2,0,22.9,0,22.3,0,25,0,2003/6/1 10:30,11.7,0
2003/6/1,3:40:00,22.2,0,63.4,0,22.9,0,22.3,0,24.9,0,2003/6/1 11:00,11.3,0
2003/6/1,3:50:00,22.2,0,63.4,0,22.9,0,22.3,0,24.9,0,2003/6/1 11:30,12.7,0
2003/6/1,4:00:00,22.2,0,63.6,0,22.9,0,22.3,0,24.8,0,2003/6/1 12:00,12.8,0
2003/6/1,4:10:00,22.2,0,63.6,0,22.9,0,22.3,0,24.8,0,2003/6/1 12:30,13,0
2003/6/1,4:20:00,22.2,0,63.9,0,22.9,0,22.2,0,24.7,0,2003/6/1 13:00,13.1,0
2003/6/1,4:30:00,22.1,0,63.9,0,22.9,0,22.2,0,24.7,0,2003/6/1 13:30,13.3,0
2003/6/1,4:40:00,22.1,0,64.1,0,22.9,0,22.2,0,24.7,0,2003/6/1 14:00,12.4,0
2003/6/1,4:50:00,22.1,0,63.9,0,22.9,0,22.2,0,24.7,0,2003/6/1 14:30,12.6,0
2003/6/1,5:00:00,22.1,0,64.1,0,22.9,0,22.2,0,24.7,0,2003/6/1 15:00,12.2,0
2003/6/1,5:10:00,22.1,0,64.2,0,22.9,0,22.2,0,24.6,0,2003/6/1 15:30,12.5,0
2003/6/1,5:20:00,22.1,0,64.3,0,22.9,0,22.2,0,24.6,0,2003/6/1 16:00,11.3,0
2003/6/1,5:30:00,22.1,0,64,0,22.9,0,22.2,0,24.6,0,2003/6/1 16:30,11.4,0
2003/6/1,5:40:00,22.1,0,64.3,0,22.9,0,22.2,0,24.5,0,2003/6/1 17:00,12,0
2003/6/1,5:50:00,22.2,0,64.3,0,22.9,0,22.2,0,24.4,0,2003/6/1 17:30,12.2,0
2003/6/1,6:00:00,22.2,0,64.2,0,22.9,0,22.2,0,24.4,0,2003/6/1 18:00,11.3,0
2003/6/1,6:10:00,22.3,0,64.3,0,22.9,0,22.2,0,24.3,0,2003/6/1 18:30,11.5,0
2003/6/1,6:20:00,22.3,0,64.3,0,22.8,0,22.1,0,24.3,0,2003/6/1 19:00,11.7,0
2003/6/1,6:30:00,22.3,0,64.2,0,22.8,0,22.2,0,24.2,0,2003/6/1 19:30,13.2,0
2003/6/1,6:40:00,22.3,0,64.2,0,22.8,0,22.2,0,24.2,0,2003/6/1 20:00,11.9,0
2003/6/1,6:50:00,22.4,0,65.9,0,22.8,0,22.1,0,24.1,0,2003/6/1 20:30,12.1,0
2003/6/1,7:00:00,22.5,0,67.2,0,22.8,0,22.1,0,24.1,0,2003/6/1 21:00,12.3,0
2003/6/1,7:10:00,22.5,0,66.1,0,22.8,0,22.2,0,24,0,2003/6/1 21:30,11.6,0
2003/6/1,7:20:00,22.6,0,65.6,0,22.8,0,22.2,0,24,0,2003/6/1 22:00,11.8,0
2003/6/1,7:30:00,22.5,0,65.5,0,22.8,0,22.2,0,24,0,2003/6/1 22:30,12.5,0
2003/6/1,7:40:00,22.7,0,65.3,0,22.8,0,22.2,0,23.9,0,2003/6/1 23:00,10.8,0
2003/6/1,7:50:00,22.8,0,65.1,0,22.8,0,22.2,0,23.8,0,2003/6/1 23:30,10.6,0
2003/6/1,8:00:00,22.8,0,64.8,0,22.8,0,22.2,0,23.7,0,2003/6/2 0:00,10.8,0
2003/6/1,8:10:00,22.9,0,64,0,22.8,0,22.2,0,23.7,0,2003/6/2 0:30,11,0
2003/6/1,8:20:00,23,0,66.1,0,22.8,0,22.2,0,23.7,0,2003/6/2 1:00,11.2,0
2003/6/1,8:30:00,23.2,0,65.9,0,22.7,0,22.1,0,23.6,0,2003/6/2 1:30,14.7,0
2003/6/1,8:40:00,23,0,64.8,0,22.7,0,22.1,0,23.6,0,2003/6/2 2:00,14.8,0
2003/6/1,8:50:00,23.1,0,64.3,0,22.7,0,22.1,0,23.6,0,2003/6/2 2:30,15,0
2003/6/1,9:00:00,23.2,0,63.9,0,22.7,0,22.1,0,23.5,0,2003/6/2 3:00,15.1,0
2003/6/1,9:10:00,23,0,62.9,0,22.6,0,22,0,23.4,0,2003/6/2 3:30,15.1,0
2003/6/1,9:20:00,22.9,0,63.1,0,22.4,0,22,0,23.4,0,2003/6/2 4:00,15.3,0
2003/6/1,9:30:00,22.9,0,63.5,0,22.3,0,22,0,23.4,0,2003/6/2 4:30,15.4,0
2003/6/1,9:40:00,22.8,0,64,0,22.1,0,22.1,0,37,0,2003/6/2 5:00,15.5,0
2003/6/1,9:50:00,22.8,0,64.6,0,22.3,0,22.2,0,53.2,0,2003/6/2 5:30,15.6,0
2003/6/1,10:00:00,22.8,0,64.6,0,22.4,0,22.4,0,51,0,2003/6/2 6:00,16.5,0
2003/6/1,10:10:00,22.9,0,64.3,0,22.5,0,22.6,0,46.7,0,2003/6/2 6:30,16.6,0
2003/6/1,10:20:00,22.9,0,64.8,0,22.6,0,22.5,0,42.4,0,2003/6/2 7:00,13.8,0
2003/6/1,10:30:00,22.8,0,65.5,0,22.7,0,22.3,0,38.6,0,2003/6/2 7:30,11.2,0
2003/6/1,10:40:00,22.7,0,66.2,0,22.8,0,22.3,0,35.6,0,2003/6/2 8:00,11.4,0
2003/6/1,10:50:00,22.7,0,66.6,0,22.9,0,22.2,0,33.4,0,2003/6/2 8:30,9.8,0
2003/6/1,11:00:00,22.7,0,66.7,0,23,0,22.2,0,31.7,0,2003/6/2 9:00,10.1,0
2003/6/1,11:10:00,22.7,0,67.1,0,23,0,22.1,0,30.4,0,2003/6/2 9:30,10.3,0
2003/6/1,11:20:00,22.6,0,67.6,0,23,0,22.1,0,29.5,0,2003/6/2 10:00,10.5,0
2003/6/1,11:30:00,22.6,0,67.5,0,23.1,0,22.1,0,28.9,0,2003/6/2 10:30,13.1,0
2003/6/1,11:40:00,22.7,0,68.2,0,23.1,0,22,0,28.3,0,2003/6/2 11:00,13.3,0
2003/6/1,11:50:00,22.7,0,67.8,0,23.1,0,22,0,28,0,2003/6/2 11:30,13.8,0
2003/6/1,12:00:00,22.7,0,67.4,0,23.1,0,22,0,27.6,0,2003/6/2 12:00,14,0
2003/6/1,12:10:00,22.7,0,67.6,0,23.2,0,22,0,27.4,0,2003/6/2 12:30,14.1,0
2003/6/1,12:20:00,22.8,0,67.6,0,23.2,0,22,0,27.2,0,2003/6/2 13:00,14.2,0
2003/6/1,12:30:00,22.8,0,68.1,0,23.2,0,22,0,27.1,0,2003/6/2 13:30,14.4,0
2003/6/1,12:40:00,22.8,0,68.2,0,23.2,0,22,0,27,0,2003/6/2 14:00,14.5,0
2003/6/1,12:50:00,22.9,0,67.5,0,23.2,0,21.9,0,26.9,0,2003/6/2 14:30,14.6,0
2003/6/1,13:00:00,22.9,0,67.7,0,23.2,0,21.9,0,26.9,0,2003/6/2 15:00,14.7,0
2003/6/1,13:10:00,22.9,0,67.8,0,23.2,0,21.9,0,26.8,0,2003/6/2 15:30,12.9,0
2003/6/1,13:20:00,22.9,0,67.5,0,23.2,0,21.9,0,26.7,0,2003/6/2 16:00,13.1,0
2003/6/1,13:30:00,22.9,0,67.2,0,23.1,0,21.9,0,26.6,0,2003/6/2 16:30,13.3,0
2003/6/1,13:40:00,22.9,0,66.9,0,23.1,0,21.9,0,26.4,0,2003/6/2 17:00,11.6,0
2003/6/1,13:50:00,22.9,0,66.9,0,23.1,0,21.9,0,26.2,0,2003/6/2 17:30,10.3,0
2003/6/1,14:00:00,22.8,0,66.9,0,23.2,0,21.9,0,26,0,2003/6/2 18:00,10.5,0
2003/6/1,14:10:00,22.8,0,66.4,0,23.2,0,21.9,0,25.7,0,2003/6/2 18:30,10.8,0
2003/6/1,14:20:00,22.8,0,66.6,0,23.2,0,21.9,0,25.5,0,2003/6/2 19:00,10.9,0
2003/6/1,14:30:00,22.9,0,66.9,0,23.3,0,21.9,0,25.2,0,2003/6/2 19:30,11.1,0
2003/6/1,14:40:00,22.9,0,66.9,0,23.2,0,21.9,0,24.9,0,2003/6/2 20:00,14.3,0
2003/6/1,14:50:00,22.9,0,67.2,0,23.1,0,21.9,0,24.7,0,2003/6/2 20:30,11.6,0
2003/6/1,15:00:00,22.9,0,66.8,0,23.1,0,21.9,0,24.6,0,2003/6/2 21:00,10.7,0
2003/6/1,15:10:00,23,0,67.4,0,23,0,21.9,0,24.4,0,2003/6/2 21:30,11,0
2003/6/1,15:20:00,23,0,67.2,0,23,0,21.9,0,24.3,0,2003/6/2 22:00,12.3,0
2003/6/1,15:30:00,22.9,0,67.9,0,23,0,22,0,24.1,0,2003/6/2 22:30,12.6,0
2003/6/1,15:40:00,22.9,0,67.3,0,22.9,0,21.9,0,24.1,0,2003/6/2 23:00,10.2,0
2003/6/1,15:50:00,22.9,0,66.7,0,22.9,0,21.9,0,24,0,2003/6/2 23:30,10.3,0
2003/6/1,16:00:00,22.9,0,66.6,0,22.9,0,21.9,0,23.9,0,2003/6/3 0:00,10.5,0
2003/6/1,16:10:00,22.9,0,66.8,0,22.9,0,21.9,0,23.9,0,2003/6/3 0:30,10.7,0
2003/6/1,16:20:00,22.9,0,66.9,0,22.9,0,21.9,0,23.9,0,2003/6/3 1:00,11,0
2003/6/1,16:30:00,22.8,0,66.8,0,22.9,0,21.9,0,23.9,0,2003/6/3 1:30,11.2,0
2003/6/1,16:40:00,22.8,0,66.7,0,22.8,0,21.8,0,23.9,0,2003/6/3 2:00,11.4,0
2003/6/1,16:50:00,22.8,0,66.4,0,22.8,0,21.8,0,23.9,0,2003/6/3 2:30,11.6,0
2003/6/1,17:00:00,22.8,0,71,0,22.8,0,21.8,0,23.9,0,2003/6/3 3:00,11.8,0
2003/6/1,17:10:00,22.7,0,67.2,0,22.9,0,21.8,0,23.9,0,2003/6/3 3:30,12,0
2003/6/1,17:20:00,22.7,0,66.1,0,22.9,0,21.8,0,23.9,0,2003/6/3 4:00,12.2,0
2003/6/1,17:30:00,22.7,0,70,0,22.9,0,21.8,0,29.2,0,2003/6/3 4:30,12.3,0
2003/6/1,17:40:00,22.7,0,68.7,0,22.9,0,21.8,0,61.3,0,2003/6/3 5:00,12.5,0
2003/6/1,17:50:00,22.7,0,67.6,0,22.9,0,21.8,0,59.7,0,2003/6/3 5:30,16.1,0
2003/6/1,18:00:00,22.8,0,66,0,22.9,0,21.8,0,57.5,0,2003/6/3 6:00,14.8,0
2003/6/1,18:10:00,22.9,0,67.3,0,22.8,0,21.8,0,51.5,0,2003/6/3 6:30,12.6,0
2003/6/1,18:20:00,22.9,0,66.2,0,22.8,0,21.8,0,48.5,0,2003/6/3 7:00,12.6,0
2003/6/1,18:30:00,22.9,0,65.6,0,22.8,0,21.8,0,52.6,0,2003/6/3 7:30,12.9,0
2003/6/1,18:40:00,22.9,0,65.1,0,22.7,0,21.8,0,43.5,0,2003/6/3 8:00,10.9,0
2003/6/1,18:50:00,22.8,0,64.6,0,22.7,0,21.9,0,57.4,0,2003/6/3 8:30,11.1,0
2003/6/1,19:00:00,22.9,0,65.7,0,22.7,0,22.3,0,57,0,2003/6/3 9:00,11.4,0
2003/6/1,19:10:00,22.9,0,64.8,0,22.7,0,22.7,0,54.8,0,2003/6/3 9:30,11.5,0
2003/6/1,19:20:00,22.9,0,64.6,0,22.7,0,22.5,0,48.7,0,2003/6/3 10:00,11.7,0
2003/6/1,19:30:00,22.8,0,65.5,0,22.8,0,22.4,0,49.9,0,2003/6/3 10:30,12.2,0
2003/6/1,19:40:00,22.9,0,65,0,22.8,0,22.4,0,44.8,0,2003/6/3 11:00,12.3,0
2003/6/1,19:50:00,22.9,0,65.5,0,22.8,0,22.4,0,40.4,0,2003/6/3 11:30,12.5,0
2003/6/1,20:00:00,22.9,0,65.8,0,22.9,0,22.3,0,36.9,0,2003/6/3 12:00,12.6,0
2003/6/1,20:10:00,22.9,0,66,0,22.9,0,22.2,0,34.2,0,2003/6/3 12:30,12.8,0
2003/6/1,20:20:00,22.8,0,66,0,22.9,0,22.1,0,32.3,0,2003/6/3 13:00,15.6,0
2003/6/1,20:30:00,22.8,0,65.9,0,22.9,0,22.1,0,30.7,0,2003/6/3 13:30,15.1,0
2003/6/1,20:40:00,22.8,0,65.9,0,22.9,0,22,0,29.5,0,2003/6/3 14:00,15.2,0
2003/6/1,20:50:00,22.8,0,65.6,0,23,0,22,0,28.5,0,2003/6/3 14:30,15.3,0
2003/6/1,21:00:00,22.8,0,65.7,0,23,0,21.9,0,27.6,0,2003/6/3 15:00,15.4,0
2003/6/1,21:10:00,22.7,0,65.3,0,22.9,0,21.9,0,26.6,0,2003/6/3 15:30,15.6,0
2003/6/1,21:20:00,22.7,0,65,0,22.9,0,21.9,0,25.4,0,2003/6/3 16:00,15.6,0
2003/6/1,21:30:00,22.6,0,64.6,0,22.9,0,21.9,0,24.5,0,2003/6/3 16:30,15.7,0
2003/6/1,21:40:00,22.5,0,64.5,0,23,0,21.8,0,23.8,0,2003/6/3 17:00,12.3,0
2003/6/1,21:50:00,22.5,0,64.3,0,23,0,21.8,0,23.3,0,2003/6/3 17:30,12.5,0
2003/6/1,22:00:00,22.5,0,64.4,0,23,0,21.8,0,22.9,0,2003/6/3 18:00,12.7,0
2003/6/1,22:10:00,22.4,0,64,0,23,0,21.8,0,22.6,0,2003/6/3 18:30,12.8,0
2003/6/1,22:20:00,22.4,0,63.7,0,23,0,21.7,0,22.4,0,2003/6/3 19:00,13,0
2003/6/1,22:30:00,22.3,0,63.7,0,23,0,21.7,0,22.2,0,2003/6/3 19:30,13.1,0
2003/6/1,22:40:00,22.3,0,63.4,0,23,0,21.6,0,22.1,0,2003/6/3 20:00,13.3,0
2003/6/1,22:50:00,22.3,0,63.2,0,23,0,21.6,0,21.9,0,2003/6/3 20:30,13.5,0
2003/6/1,23:00:00,22.2,0,63.4,0,23,0,21.6,0,21.8,0,2003/6/3 21:00,13.6,0
2003/6/1,23:10:00,22.2,0,63.2,0,23,0,21.5,0,21.6,0,2003/6/3 21:30,13.3,0
2003/6/1,23:20:00,22,0,63.1,0,22.9,0,21.5,0,21.5,0,2003/6/3 22:00,13.5,0
2003/6/1,23:30:00,21.9,0,63,0,22.8,0,21.4,0,21.4,0,2003/6/3 22:30,11.5,0
2003/6/1,23:40:00,21.9,0,62.8,0,22.7,0,21.4,0,21.2,0,2003/6/3 23:00,11.6,0
2003/6/1,23:50:00,21.9,0,62.9,0,22.7,0,21.3,0,21.1,0,2003/6/3 23:30,10.4,0
2003/6/2,0:00:00,21.8,0,63.1,0,22.6,0,21.3,0,21,0,2003/6/4 0:00,12.6,0
2003/6/2,0:10:00,21.7,0,63.2,0,22.6,0,21.3,0,20.9,0,2003/6/4 0:30,12.8,0
2003/6/2,0:20:00,21.7,0,63.4,0,22.5,0,21.2,0,20.8,0,2003/6/4 1:00,13,0
2003/6/2,0:30:00,21.6,0,63.3,0,22.5,0,21.2,0,20.6,0,2003/6/4 1:30,13.1,0
2003/6/2,0:40:00,21.6,0,63.3,0,22.4,0,21.2,0,20.5,0,2003/6/4 2:00,13.2,0
2003/6/2,0:50:00,21.5,0,63.2,0,22.4,0,21.1,0,20.3,0,2003/6/4 2:30,13.4,0
2003/6/2,1:00:00,21.5,0,63.3,0,22.4,0,21.1,0,20.2,0,2003/6/4 3:00,13.6,0
2003/6/2,1:10:00,21.5,0,63.4,0,22.3,0,21.1,0,20.2,0,2003/6/4 3:30,13.7,0
2003/6/2,1:20:00,21.4,0,63.2,0,22.3,0,21.1,0,20.1,0,2003/6/4 4:00,13.9,0
2003/6/2,1:30:00,21.4,0,63.3,0,22.3,0,21,0,19.9,0,2003/6/4 4:30,14.1,0
2003/6/2,1:40:00,21.4,0,63.3,0,22.3,0,21,0,19.9,0,2003/6/4 5:00,14.2,0
2003/6/2,1:50:00,21.3,0,63.4,0,22.2,0,21,0,19.8,0,2003/6/4 5:30,14.4,0
2003/6/2,2:00:00,21.3,0,63.4,0,22.2,0,21,0,19.8,0,2003/6/4 6:00,17.3,0
2003/6/2,2:10:00,21.3,0,63.4,0,22.2,0,20.9,0,19.8,0,2003/6/4 6:30,14.2,0
2003/6/2,2:20:00,21.3,0,63.4,0,22.1,0,20.9,0,19.7,0,2003/6/4 7:00,11.4,0
2003/6/2,2:30:00,21.2,0,63.5,0,22.1,0,20.9,0,19.6,0,2003/6/4 7:30,11.7,0
2003/6/2,2:40:00,21.2,0,63.5,0,22.1,0,20.9,0,19.6,0,2003/6/4 8:00,11.9,0
2003/6/2,2:50:00,21.2,0,63.3,0,22.1,0,20.8,0,19.5,0,2003/6/4 8:30,12.1,0
2003/6/2,3:00:00,21.2,0,63.3,0,22,0,20.8,0,19.5,0,2003/6/4 9:00,12.3,0
2003/6/2,3:10:00,21.1,0,63.2,0,22,0,20.8,0,19.5,0,2003/6/4 9:30,12.4,0
2003/6/2,3:20:00,21.1,0,63.4,0,22,0,20.8,0,19.5,0,2003/6/4 10:00,13.5,0
2003/6/2,3:30:00,21.1,0,63.4,0,22,0,20.8,0,19.5,0,2003/6/4 10:30,13.6,0
2003/6/2,3:40:00,21.1,0,63.2,0,21.9,0,20.8,0,19.5,0,2003/6/4 11:00,13.8,0
2003/6/2,3:50:00,21,0,63.1,0,21.9,0,20.8,0,19.4,0,2003/6/4 11:30,13.9,0
2003/6/2,4:00:00,21,0,63.1,0,21.9,0,20.8,0,19.4,0,2003/6/4 12:00,14.1,0
2003/6/2,4:10:00,21,0,63.1,0,21.9,0,20.7,0,19.4,0,2003/6/4 12:30,14.2,0
2003/6/2,4:20:00,21,0,63,0,21.9,0,20.7,0,19.4,0,2003/6/4 13:00,14.4,0
2003/6/2,4:30:00,20.9,0,63,0,21.8,0,20.7,0,19.3,0,2003/6/4 13:30,14.5,0
2003/6/2,4:40:00,20.9,0,62.9,0,21.8,0,20.7,0,19.3,0,2003/6/4 14:00,14.5,0
2003/6/2,4:50:00,20.9,0,62.9,0,21.8,0,20.7,0,19.3,0,2003/6/4 14:30,14.6,0
2003/6/2,5:00:00,20.9,0,62.9,0,21.7,0,20.7,0,19.2,0,2003/6/4 15:00,14.8,0
2003/6/2,5:10:00,20.9,0,62.8,0,21.7,0,20.7,0,19.2,0,2003/6/4 15:30,14.9,0
2003/6/2,5:20:00,20.9,0,62.7,0,21.7,0,20.7,0,19.2,0,2003/6/4 16:00,15,0
2003/6/2,5:30:00,20.9,0,62.7,0,21.7,0,20.7,0,19.2,0,2003/6/4 16:30,12.9,0
2003/6/2,5:40:00,20.9,0,62.6,0,21.7,0,20.6,0,19.1,0,2003/6/4 17:00,13.1,0
2003/6/2,5:50:00,20.9,0,64.6,0,21.7,0,20.6,0,19.1,0,2003/6/4 17:30,13.3,0
2003/6/2,6:00:00,20.9,0,67.8,0,21.7,0,20.6,0,19.1,0,2003/6/4 18:00,13.8,0
2003/6/2,6:10:00,20.9,0,64.4,0,21.7,0,20.6,0,19.1,0,2003/6/4 18:30,13.9,0
2003/6/2,6:20:00,20.9,0,63.6,0,21.6,0,20.6,0,19.1,0,2003/6/4 19:00,14.3,0
2003/6/2,6:30:00,20.9,0,63.5,0,21.6,0,20.6,0,19.1,0,2003/6/4 19:30,14.4,0
2003/6/2,6:40:00,20.9,0,65.4,0,21.6,0,20.6,0,19.1,0,2003/6/4 20:00,14.6,0
2003/6/2,6:50:00,21,0,63.9,0,21.6,0,20.6,0,19.1,0,2003/6/4 20:30,12.8,0
2003/6/2,7:00:00,21,0,62.7,0,21.6,0,20.6,0,19.1,0,2003/6/4 21:00,13,0
2003/6/2,7:10:00,21.2,0,62,0,21.7,0,20.5,0,19.1,0,2003/6/4 21:30,13.1,0
2003/6/2,7:20:00,21.5,0,62.1,0,21.7,0,20.5,0,19.1,0,2003/6/4 22:00,13.8,0
2003/6/2,7:30:00,21.6,0,62.2,0,21.6,0,20.3,0,19.1,0,2003/6/4 22:30,11.4,0
2003/6/2,7:40:00,21.6,0,62,0,21.6,0,20.2,0,19.1,0,2003/6/4 23:00,12.3,0
2003/6/2,7:50:00,21.5,0,61,0,21.5,0,20.2,0,19.1,0,2003/6/4 23:30,12.3,0
2003/6/2,8:00:00,21.5,0,60.7,0,21.5,0,20.1,0,19.2,0,2003/6/5 0:00,12.5,0
2003/6/2,8:10:00,21.5,0,60.7,0,21.5,0,20.1,0,19.3,0,2003/6/5 0:30,13.9,0
2003/6/2,8:20:00,21.4,0,60.1,0,21.5,0,20.2,0,19.3,0,2003/6/5 1:00,14.1,0
2003/6/2,8:30:00,21.3,0,58.8,0,21.5,0,20.2,0,19.4,0,2003/6/5 1:30,14.1,0
2003/6/2,8:40:00,21.3,0,57.3,0,21.5,0,20.2,0,19.5,0,2003/6/5 2:00,14.2,0
2003/6/2,8:50:00,21.3,0,57.1,0,21.5,0,20.1,0,19.5,0,2003/6/5 2:30,14.4,0
2003/6/2,9:00:00,21.4,0,56.8,0,21.4,0,20.1,0,19.6,0,2003/6/5 3:00,14.5,0
2003/6/2,9:10:00,21.3,0,56.5,0,21.5,0,20.1,0,19.6,0,2003/6/5 3:30,14.7,0
2003/6/2,9:20:00,21.3,0,56.2,0,21.5,0,20,0,19.7,0,2003/6/5 4:00,14.8,0
2003/6/2,9:30:00,21.1,0,55.7,0,21.5,0,20.1,0,19.8,0,2003/6/5 4:30,14.9,0
2003/6/2,9:40:00,21.1,0,55.4,0,21.6,0,20,0,19.9,0,2003/6/5 5:00,15,0
2003/6/2,9:50:00,21.2,0,56.6,0,21.5,0,20,0,19.9,0,2003/6/5 5:30,17.3,0
2003/6/2,10:00:00,21.2,0,56,0,21.5,0,20,0,20,0,2003/6/5 6:00,15.4,0
2003/6/2,10:10:00,21.2,0,55.9,0,21.5,0,20,0,20,0,2003/6/5 6:30,13.7,0
2003/6/2,10:20:00,21.6,0,57.3,0,21.5,0,20,0,20.1,0,2003/6/5 7:00,13.1,0
2003/6/2,10:30:00,21.7,0,58,0,21.5,0,20,0,20.1,0,2003/6/5 7:30,13.4,0
2003/6/2,10:40:00,21.8,0,58.8,0,21.5,0,20,0,20.1,0,2003/6/5 8:00,11.6,0
2003/6/2,10:50:00,21.8,0,59.2,0,21.5,0,20,0,20.2,0,2003/6/5 8:30,11.4,0
2003/6/2,11:00:00,21.9,0,59.5,0,21.5,0,20,0,20.2,0,2003/6/5 9:00,12,0
2003/6/2,11:10:00,21.9,0,59.2,0,21.5,0,20,0,20.2,0,2003/6/5 9:30,12.2,0
2003/6/2,11:20:00,21.9,0,60.5,0,21.5,0,20,0,20.2,0,2003/6/5 10:00,13.4,0
2003/6/2,11:30:00,22,0,60.8,0,21.5,0,20,0,20.3,0,2003/6/5 10:30,13.5,0
2003/6/2,11:40:00,22,0,61.2,0,21.5,0,20.1,0,20.2,0,2003/6/5 11:00,13.6,0
2003/6/2,11:50:00,22.1,0,60.9,0,21.6,0,20.1,0,20.2,0,2003/6/5 11:30,13.8,0
2003/6/2,12:00:00,22.1,0,61.3,0,21.6,0,20.1,0,20.2,0,2003/6/5 12:00,13.9,0
2003/6/2,12:10:00,22.1,0,61.5,0,21.6,0,20.1,0,20.2,0,2003/6/5 12:30,14.1,0
2003/6/2,12:20:00,22.1,0,61.8,0,21.6,0,20.1,0,20.2,0,2003/6/5 13:00,14.2,0
2003/6/2,12:30:00,22.2,0,61.8,0,21.6,0,20.2,0,20.3,0,2003/6/5 13:30,14.3,0
2003/6/2,12:40:00,22.2,0,61.9,0,21.7,0,20.2,0,20.3,0,2003/6/5 14:00,15.5,0
2003/6/2,12:50:00,22.2,0,61.5,0,21.7,0,20.2,0,20.3,0,2003/6/5 14:30,15.6,0
2003/6/2,13:00:00,22.2,0,62.1,0,21.7,0,20.2,0,20.3,0,2003/6/5 15:00,15.7,0
2003/6/2,13:10:00,22.2,0,62.2,0,21.7,0,20.3,0,20.4,0,2003/6/5 15:30,15.8,0
2003/6/2,13:20:00,22.2,0,62.4,0,21.7,0,20.3,0,20.5,0,2003/6/5 16:00,14.5,0
2003/6/2,13:30:00,22.2,0,61.7,0,21.7,0,20.3,0,20.6,0,2003/6/5 16:30,14.6,0
2003/6/2,13:40:00,22.3,0,62,0,21.7,0,20.3,0,20.6,0,2003/6/5 17:00,14.5,0
2003/6/2,13:50:00,22.4,0,61.3,0,21.7,0,20.4,0,20.7,0,2003/6/5 17:30,14.7,0
2003/6/2,14:00:00,22.5,0,61.2,0,21.7,0,20.4,0,20.8,0,2003/6/5 18:00,14.8,0
2003/6/2,14:10:00,22.5,0,60.6,0,21.7,0,20.4,0,20.8,0,2003/6/5 18:30,14.8,0
2003/6/2,14:20:00,22.5,0,60.5,0,21.8,0,20.5,0,20.9,0,2003/6/5 19:00,15,0
2003/6/2,14:30:00,22.6,0,60.5,0,21.8,0,20.5,0,20.9,0,2003/6/5 19:30,11.6,0
2003/6/2,14:40:00,22.6,0,59.7,0,21.8,0,20.5,0,20.9,0,2003/6/5 20:00,12.3,0
2003/6/2,14:50:00,22.6,0,56.2,0,21.9,0,20.5,0,20.9,0,2003/6/5 20:30,12.5,0
2003/6/2,15:00:00,22.5,0,54.6,0,21.9,0,20.6,0,20.9,0,2003/6/5 21:00,12.6,0
2003/6/2,15:10:00,22.5,0,53.2,0,21.9,0,20.6,0,20.9,0,2003/6/5 21:30,12.8,0
2003/6/2,15:20:00,22.4,0,49.8,0,21.9,0,20.6,0,20.9,0,2003/6/5 22:00,15.3,0
2003/6/2,15:30:00,22.3,0,48.9,0,21.9,0,20.6,0,20.9,0,2003/6/5 22:30,15.4,0
2003/6/2,15:40:00,22.3,0,51.3,0,21.9,0,20.6,0,20.9,0,2003/6/5 23:00,12.5,0
2003/6/2,15:50:00,22.3,0,52.7,0,21.9,0,20.6,0,20.8,0,2003/6/5 23:30,12.7,0
2003/6/2,16:00:00,22.2,0,53.6,0,21.8,0,20.6,0,20.8,0,2003/6/6 0:00,11.7,0
2003/6/2,16:10:00,22.2,0,53.3,0,21.8,0,20.6,0,20.7,0,2003/6/6 0:30,13,0
2003/6/2,16:20:00,22.1,0,53.8,0,21.7,0,20.5,0,20.6,0,2003/6/6 1:00,13.3,0
2003/6/2,16:30:00,22,0,52.8,0,21.7,0,20.5,0,20.5,0,2003/6/6 1:30,13.9,0
2003/6/2,16:40:00,22,0,52.8,0,21.7,0,20.5,0,20.4,0,2003/6/6 2:00,14,0
2003/6/2,16:50:00,21.9,0,52.6,0,21.7,0,20.4,0,20.4,0,2003/6/6 2:30,14.5,0
2003/6/2,17:00:00,21.9,0,53.2,0,21.6,0,20.4,0,25,0,2003/6/6 3:00,14.7,0
2003/6/2,17:10:00,21.9,0,53.8,0,21.6,0,20.4,0,62.1,0,2003/6/6 3:30,14.8,0
2003/6/2,17:20:00,21.8,0,53.8,0,21.6,0,20.4,0,67.6,0,2003/6/6 4:00,14.9,0
2003/6/2,17:30:00,21.8,0,53.9,0,21.6,0,20.3,0,63.1,0,2003/6/6 4:30,15,0
2003/6/2,17:40:00,21.7,0,54.2,0,21.6,0,20.3,0,56.2,0,2003/6/6 5:00,15.1,0
2003/6/2,17:50:00,21.6,0,57.2,0,21.7,0,20.3,0,60,0,2003/6/6 5:30,15.2,0
2003/6/2,18:00:00,21.6,0,56.5,0,21.7,0,20.3,0,56.5,0,2003/6/6 6:00,16.5,0
2003/6/2,18:10:00,21.7,0,57.1,0,21.7,0,20.3,0,57.4,0,2003/6/6 6:30,13.7,0
2003/6/2,18:20:00,21.7,0,57,0,21.8,0,20.3,0,49.1,0,2003/6/6 7:00,12.8,0
2003/6/2,18:30:00,21.7,0,56.8,0,21.8,0,20.3,0,41.2,0,2003/6/6 7:30,12.4,0
2003/6/2,18:40:00,21.7,0,56.9,0,21.9,0,20.3,0,54.7,0,2003/6/6 8:00,12.6,0
2003/6/2,18:50:00,21.7,0,57.1,0,21.9,0,20.4,0,53.8,0,2003/6/6 8:30,12.7,0
2003/6/2,19:00:00,21.7,0,57.2,0,22,0,20.4,0,43.9,0,2003/6/6 9:00,12.9,0
2003/6/2,19:10:00,21.7,0,57.3,0,22,0,20.4,0,46.5,0,2003/6/6 9:30,13,0
2003/6/2,19:20:00,21.7,0,57.2,0,22,0,20.4,0,56.1,0,2003/6/6 10:00,13.2,0
2003/6/2,19:30:00,21.7,0,57.3,0,22.1,0,20.5,0,47.6,0,2003/6/6 10:30,12.8,0
2003/6/2,19:40:00,21.7,0,57.5,0,22.1,0,20.5,0,40.2,0,2003/6/6 11:00,13,0
2003/6/2,19:50:00,21.7,0,57.8,0,22.1,0,20.5,0,56,0,2003/6/6 11:30,13.1,0
2003/6/2,20:00:00,21.7,0,57.8,0,22.1,0,20.6,0,49.6,0,2003/6/6 12:00,13.3,0
2003/6/2,20:10:00,21.8,0,58.3,0,22,0,20.6,0,61.2,0,2003/6/6 12:30,13.5,0
2003/6/2,20:20:00,21.9,0,62.7,0,21.9,0,21.1,0,58.6,0,2003/6/6 13:00,13.6,0
2003/6/2,20:30:00,21.9,0,63.9,0,21.9,0,21.1,0,56.4,0,2003/6/6 13:30,15,0
2003/6/2,20:40:00,21.9,0,61.8,0,21.9,0,21.1,0,50.1,0,2003/6/6 14:00,15.1,0
2003/6/2,20:50:00,21.8,0,61.3,0,22,0,21,0,48.8,0,2003/6/6 14:30,15.2,0
2003/6/2,21:00:00,21.9,0,60.8,0,22,0,21,0,45.3,0,2003/6/6 15:00,15.3,0
2003/6/2,21:10:00,22,0,60.6,0,22,0,21.1,0,41.3,0,2003/6/6 15:30,15.4,0
2003/6/2,21:20:00,21.9,0,61,0,22,0,21,0,38,0,2003/6/6 16:00,15.5,0
2003/6/2,21:30:00,22,0,60.6,0,22.1,0,20.9,0,35.1,0,2003/6/6 16:30,15.6,0
2003/6/2,21:40:00,22,0,60.8,0,22.1,0,20.9,0,33.1,0,2003/6/6 17:00,15.7,0
2003/6/2,21:50:00,22,0,60.2,0,22.1,0,20.9,0,31.4,0,2003/6/6 17:30,15.9,0
2003/6/2,22:00:00,22.1,0,59.5,0,22.1,0,20.8,0,29.9,0,2003/6/6 18:00,15.9,0
2003/6/2,22:10:00,22.1,0,58.8,0,22.1,0,20.8,0,28.9,0,2003/6/6 18:30,12.8,0
2003/6/2,22:20:00,22,0,59,0,22.1,0,20.8,0,28,0,2003/6/6 19:00,13.1,0
2003/6/2,22:30:00,21.9,0,58.6,0,22.1,0,20.7,0,27.3,0,2003/6/6 19:30,13.2,0
2003/6/2,22:40:00,21.9,0,58.6,0,22.1,0,20.7,0,26.7,0,2003/6/6 20:00,13.4,0
2003/6/2,22:50:00,21.9,0,58.4,0,22.2,0,20.7,0,26.2,0,2003/6/6 20:30,13.6,0
2003/6/2,23:00:00,21.9,0,58.2,0,22.2,0,20.7,0,25.8,0,2003/6/6 21:00,13.7,0
2003/6/2,23:10:00,21.7,0,58.4,0,22.2,0,20.7,0,25.4,0,2003/6/6 21:30,13.9,0
2003/6/2,23:20:00,21.7,0,58.1,0,22.2,0,20.7,0,25.1,0,2003/6/6 22:00,12.6,0
2003/6/2,23:30:00,21.6,0,58,0,22.1,0,20.6,0,24.9,0,2003/6/6 22:30,12.8,0
2003/6/2,23:40:00,21.5,0,57.8,0,22.1,0,20.6,0,24.8,0,2003/6/6 23:00,13.6,0
2003/6/2,23:50:00,21.5,0,57.6,0,22.1,0,20.6,0,24.6,0,2003/6/6 23:30,11.8,0
2003/6/3,0:00:00,21.4,0,57.6,0,22,0,20.6,0,24.4,0,2003/6/7 0:00,12.5,0
2003/6/3,0:10:00,21.4,0,57.5,0,22,0,20.5,0,24.3,0,2003/6/7 0:30,12.6,0
2003/6/3,0:20:00,21.3,0,57.4,0,22,0,20.5,0,24.3,0,2003/6/7 1:00,13.8,0
2003/6/3,0:30:00,21.3,0,57.4,0,21.9,0,20.5,0,24.3,0,2003/6/7 1:30,13.9,0
2003/6/3,0:40:00,21.3,0,57.3,0,21.9,0,20.5,0,24.2,0,2003/6/7 2:00,14.1,0
2003/6/3,0:50:00,21.2,0,57.4,0,21.9,0,20.4,0,24.2,0,2003/6/7 2:30,14.2,0
2003/6/3,1:00:00,21.2,0,57.4,0,21.9,0,20.4,0,24.1,0,2003/6/7 3:00,14.4,0
2003/6/3,1:10:00,21.1,0,57.5,0,21.9,0,20.4,0,24.1,0,2003/6/7 3:30,14.5,0
2003/6/3,1:20:00,21.1,0,57.8,0,21.9,0,20.4,0,24.1,0,2003/6/7 4:00,14.6,0
2003/6/3,1:30:00,21.1,0,58,0,21.8,0,20.4,0,24,0,2003/6/7 4:30,16.8,0
2003/6/3,1:40:00,21.1,0,58.2,0,21.8,0,20.4,0,23.9,0,2003/6/7 5:00,16.8,0
2003/6/3,1:50:00,21.1,0,58.4,0,21.8,0,20.4,0,23.9,0,2003/6/7 5:30,16.9,0
2003/6/3,2:00:00,21,0,58.5,0,21.8,0,20.4,0,23.8,0,2003/6/7 6:00,17,0
2003/6/3,2:10:00,21,0,58.7,0,21.8,0,20.4,0,23.7,0,2003/6/7 6:30,16.8,0
2003/6/3,2:20:00,21,0,59,0,21.7,0,20.4,0,23.6,0,2003/6/7 7:00,16.9,0
2003/6/3,2:30:00,21,0,59.2,0,21.7,0,20.4,0,23.6,0,2003/6/7 7:30,17.1,0
2003/6/3,2:40:00,21,0,59.3,0,21.7,0,20.4,0,23.6,0,2003/6/7 8:00,11.1,0
2003/6/3,2:50:00,21,0,59.6,0,21.7,0,20.4,0,23.4,0,2003/6/7 8:30,12.2,0
2003/6/3,3:00:00,20.9,0,59.6,0,21.7,0,20.4,0,23.4,0,2003/6/7 9:00,12.3,0
2003/6/3,3:10:00,20.9,0,59.7,0,21.7,0,20.4,0,23.4,0,2003/6/7 9:30,12.5,0
2003/6/3,3:20:00,20.9,0,59.9,0,21.7,0,20.4,0,23.3,0,2003/6/7 10:00,12.6,0
2003/6/3,3:30:00,20.9,0,59.9,0,21.7,0,20.4,0,23.2,0,2003/6/7 10:30,12.8,0
2003/6/3,3:40:00,20.9,0,59.9,0,21.7,0,20.4,0,23.1,0,2003/6/7 11:00,13.2,0
2003/6/3,3:50:00,20.9,0,60,0,21.7,0,20.5,0,23,0,2003/6/7 11:30,13.7,0
2003/6/3,4:00:00,20.9,0,60.2,0,21.7,0,20.5,0,22.9,0,2003/6/7 12:00,13.8,0
2003/6/3,4:10:00,20.8,0,60.3,0,21.7,0,20.4,0,22.9,0,2003/6/7 12:30,12.6,0
2003/6/3,4:20:00,20.8,0,60.3,0,21.6,0,20.5,0,22.8,0,2003/6/7 13:00,12.5,0
2003/6/3,4:30:00,20.8,0,60.4,0,21.6,0,20.5,0,22.8,0,2003/6/7 13:30,12.8,0
2003/6/3,4:40:00,20.8,0,60.3,0,21.6,0,20.4,0,22.7,0,2003/6/7 14:00,12,0
2003/6/3,4:50:00,20.8,0,60.2,0,21.6,0,20.5,0,22.6,0,2003/6/7 14:30,11.8,0
2003/6/3,5:00:00,20.8,0,60,0,21.6,0,20.5,0,22.5,0,2003/6/7 15:00,12.4,0
2003/6/3,5:10:00,20.8,0,60.1,0,21.6,0,20.5,0,22.4,0,2003/6/7 15:30,12.7,0
2003/6/3,5:20:00,20.9,0,60.1,0,21.7,0,20.5,0,22.4,0,2003/6/7 16:00,12.9,0
2003/6/3,5:30:00,20.9,0,59.9,0,21.7,0,20.5,0,22.4,0,2003/6/7 16:30,13,0